Temperature
10 10 10 11 11 11 11 11 11 11 11 11 11 11 11 11 11 11 11 11 12 12 12 12 12 11 11 11 11 11 11 11 11 11 11 11 11 10 10 10 10 10 10
10 10 10 10 10 10 10 10 10 10 10 11 11 11 11 11 11 11 11 11 11 11 11 11 11 11 11 11 11 11 11 11 11 11 11 10 10 10 10 10 10 10 10
9 9 10 10 10 10 10 10 10 10 10 10 10 10 10 11 11 10 11 11 11 11 11 11 11 11 11 11 10 11 11 11 10 10 10 10 10 10 10 9 9 9 9
9 9 9 9 9 9 9 9 9 9 10 10 10 10 10 10 10 10 10 10 10 10 10 10 11 11 10 10 10 10 10 10 10 10 10 10 10 10 9 9 9 9 9
8 9 9 9 9 9 9 9 9 9 9 9 10 10 10 10 10 10 10 10 10 10 10 10 10 10 10 10 10 10 10 10 10 10 10 10 9 9 9 9 9 9 8
8 8 8 8 9 9 9 9 9 9 9 9 9 9 9 9 9 9 9 9 9 9 9 10 10 10 10 10 10 10 10 10 10 10 10 9 9 9 9 9 8 8 8
7 7 8 8 8 8 8 8 8 8 8 8 8 8 9 9 9 9 9 9 9 9 9 9 9 9 9 9 9 9 9 9 9 9 9 9 9 9 8 8 8 8 8
7 7 7 7 7 8 8 8 7 7 7 7 7 7 7 8 8 8 8 8 8 8 8 8 8 8 9 9 9 9 9 9 9 9 8 8 8 8 8 8 8 8 8
6 6 7 7 7 7 7 7 7 7 7 7 7 7 6 6 7 7 7 7 7 8 8 8 8 8 8 8 8 8 8 8 8 8 8 8 8 8 8 8 8 7 7
6 6 6 6 6 6 6 6 6 6 6 6 6 6 6 6 6 6 7 7 7 7 7 7 7 7 7 8 8 8 8 8 8 8 8 7 7 7 7 7 7 7 7
5 5 6 6 6 6 6 6 6 6 6 6 6 6 6 6 6 6 6 6 6 6 6 6 6 7 7 7 7 7 7 7 8 7 7 7 7 7 7 7 7 7 7
5 5 5 5 5 5 6 6 6 6 6 5 6 6 6 6 6 6 5 6 6 6 6 6 6 6 6 7 7 7 7 7 7 7 7 7 7 7 6 6 6 7 6
5 5 5 5 5 5 5 5 5 5 5 5 5 5 6 6 6 5 5 5 5 5 5 5 5 6 6 6 6 6 6 6 6 6 6 6 6 6 6 6 6 6 6
4 5 5 5 5 5 5 5 5 5 5 5 5 5 5 5 5 5 5 5 4 4 4 5 5 5 5 5 6 6 6 6 6 6 6 6 6 6 5 5 6 6 5
4 4 4 4 4 4 5 5 5 5 4 4 4 5 5 5 5 5 5 5 4 4 4 4 4 4 5 5 5 5 5 5 5 5 5 5 5 5 5 5 5 5 5
4 4 4 4 4 4 4 4 4 4 4 4 4 4 4 4 4 4 4 4 4 4 3 4 4 4 4 4 4 5 5 5 5 5 5 5 5 5 5 5 5 5 5
4 4 4 4 4 4 4 4 4 4 4 4 4 4 4 4 4 4 4 4 3 3 3 3 4 4 4 4 4 4 4 4 4 4 4 4 4 4 4 4 4 4 4
3 3 3 3 3 3 3 3 3 3 3 3 3 3 3 3 3 3 3 3 3 3 3 3 3 3 3 3 4 4 4 4 4 4 4 4 4 4 4 4 4 4 4
3 3 3 3 3 3 3 3 3 3 3 3 3 3 3 3 3 3 3 3 3 2 3 3 2 3 3 3 3 3 3 3 3 3 3 3 3 3 3 3 3 3 3
3 3 3 3 3 2 2 2 3 3 3 2 2 2 2 2 2 2 2 2 2 2 2 2 2 2 2 2 2 3 3 3 3 3 3 3 3 3 3 3 3 3 3
2 2 2 2 2 2 2 2 2 2 2 2 2 2 2 2 2 2 2 2 2 2 2 2 2 2 2 1 2 2 2 2 2 2 2 2 2 3 3 2 2 2 2
2 2 2 2 2 2 2 1 2 2 2 2 2 2 2 1 1 1 1 1 1 1 2 1 1 1 1 1 1 1 1 1 1 1 1 2 2 2 2 2 2 2 2
1 1 1 1 1 1 1 1 1 1 1 1 1 1 1 1 1 1 1 1 1 1 1 1 1 1 1 1 1 0 1 1 1 1 1 1 2 1 2 1 2 2 2
1 1 1 1 1 1 1 1 0 1 1 1 1 1 1 0 0 0 0 0 0 0 0 0 1 1 1 0 0 0 0 0 1 0 0 1 1 1 1 1 1 1 1
0 0 0 0 0 0 0 0 -0 0 0 0 0 0 0 -0 -0 -0 -0 -0 -0 -0 -0 -0 -0 0 0 0 -0 -0 -0 -0 -0 -0 -0 -0 -0 0 1 1 1 1 1
-0 -0 -0 -0 -1 -1 -1 -1 -1 -0 -0 -1 -0 -0 -0 -1 -1 -1 -1 -1 -1 -1 -1 -1 -0 -0 -0 -1 -1 -1 -1 -1 -1 -1 -1 -1 -1 -1 -1 -0 -0 0 0
Wind_Speed
1 1 1 1 1 2 2 2 2 2 2 2 2 2 2 2 1 1 0 2 2 3 3 3 4 3 2 3 3 3 4 4 4 4 5 5 5 5 5 6 6 6 6
2 1 1 1 1 2 2 2 2 2 2 2 2 2 2 2 2 1 2 2 2 3 4 4 4 4 3 4 4 4 4 5 5 5 5 5 5 6 6 6 6 7 7
3 2 1 1 2 2 3 2 2 2 2 1 2 2 2 2 2 2 2 2 2 3 4 4 4 4 4 4 4 5 5 5 5 5 5 5 5 6 6 6 6 6 7
2 2 1 1 2 2 2 1 1 1 2 2 2 2 2 2 2 2 1 1 1 1 2 3 3 3 3 4 5 5 5 6 6 5 5 6 6 6 6 6 6 6 7
3 2 1 1 2 1 1 2 2 1 2 2 2 2 2 2 2 1 0 0 0 0 1 2 2 2 3 3 4 5 6 6 6 6 6 6 6 6 6 7 6 6 7
3 3 2 2 2 1 1 1 2 2 1 2 3 3 2 3 1 1 1 0 1 1 1 1 1 2 3 3 4 6 6 6 6 6 6 6 6 6 7 7 7 7 7
2 1 2 2 2 1 1 2 2 2 2 1 1 2 2 2 1 1 1 0 0 0 1 1 1 1 2 3 4 5 6 7 7 7 6 6 6 7 7 7 7 7 8
1 1 1 1 2 1 1 1 1 2 2 1 1 1 1 2 2 1 1 1 1 0 1 2 1 1 1 1 3 4 6 7 8 8 7 7 7 6 7 7 7 8 8
2 1 1 1 2 1 1 2 1 2 2 2 1 0 0 1 3 2 1 1 0 0 1 1 1 1 1 1 1 3 5 7 8 8 7 7 7 7 7 7 8 8 8
2 1 1 1 1 1 1 2 2 2 2 2 2 1 1 1 1 2 2 1 0 1 1 1 0 1 2 2 2 4 6 7 8 8 7 7 7 7 7 8 8 8 9
2 2 1 1 1 1 2 1 2 2 2 2 2 2 2 1 2 2 3 3 1 1 1 1 0 1 2 3 2 4 6 8 8 8 7 7 7 7 8 8 8 8 9
2 2 2 1 2 2 2 2 2 2 2 2 2 2 2 1 2 1 3 3 2 2 1 0 1 1 2 3 4 5 6 8 8 8 8 7 7 7 8 8 8 9 10
2 2 2 2 2 2 3 2 3 3 3 3 3 2 2 2 1 2 2 2 2 2 1 0 1 1 2 2 4 5 5 7 7 8 7 7 7 7 7 8 9 9 10
3 3 3 2 3 3 3 3 3 3 3 3 3 2 2 2 1 1 1 1 2 2 1 1 0 1 2 2 4 6 5 6 7 7 7 7 7 7 8 8 9 9 10
3 3 3 3 3 3 3 3 2 3 3 3 3 3 3 2 1 0 0 1 1 2 3 2 1 0 2 2 4 5 5 6 6 7 7 7 7 7 8 8 8 9 9
3 3 3 3 3 3 3 2 2 3 3 3 2 3 2 1 0 0 0 1 1 1 3 2 2 2 2 3 5 6 5 6 6 7 7 7 8 7 7 8 8 9 9
3 3 4 4 4 4 3 3 3 3 3 3 3 2 2 1 1 0 0 0 1 1 2 3 2 2 2 2 4 5 5 4 5 7 7 8 8 8 7 8 8 9 9
3 3 3 3 4 4 3 4 4 4 3 3 3 2 2 1 1 0 1 1 1 1 2 3 3 2 3 3 3 3 5 5 5 6 7 7 9 9 7 7 8 8 8
2 2 2 3 3 3 4 4 3 3 3 2 2 2 2 2 1 1 1 1 1 1 1 2 3 3 2 3 3 4 4 4 5 6 6 7 8 9 8 8 8 8 8
2 2 2 2 2 2 3 3 3 2 2 2 2 1 1 2 2 2 1 1 0 1 1 1 1 2 2 3 3 3 4 5 5 6 6 7 9 10 9 9 9 9 9
2 2 2 1 2 2 2 2 2 2 2 1 1 1 1 1 1 1 0 0 0 0 0 0 1 2 2 3 3 3 4 5 5 3 4 5 6 5 6 8 8 9 10
1 1 1 1 1 1 2 2 1 1 1 2 2 1 1 2 2 2 2 2 1 1 1 1 1 2 2 3 3 3 3 4 4 3 4 5 4 4 4 5 9 10 9
1 1 1 1 0 0 1 1 1 1 0 1 2 1 1 1 2 2 2 3 2 2 1 0 1 2 2 2 3 3 4 5 4 5 5 5 4 4 4 7 11 11 10
0 0 1 1 1 0 1 1 2 2 1 2 2 2 2 2 1 2 2 2 2 2 2 1 0 1 2 2 2 3 3 4 4 4 3 3 4 4 5 6 10 11 11
0 0 0 1 1 1 1 1 2 1 2 2 1 2 3 2 2 3 2 2 2 2 3 4 4 4 5 5 4 2 3 3 4 4 3 2 3 5 4 4 7 11 12
0 1 0 0 1 1 1 1 2 2 1 1 1 2 2 2 2 2 2 2 2 2 3 3 4 5 4 4 5 3 2 2 3 3 3 3 3 4 4 3 4 8 9
Wind_Direction
332 342 355 333 317 319 317 303 293 301 316 320 314 297 291 291 294 345 155 200 231 236 244 255 253 254 271 278 283 293 295 295 298 300 302 304 304 306 303 304 305 303 302
357 324 325 331 332 324 315 305 299 303 306 322 315 313 300 294 293 257 223 224 239 247 249 250 259 258 271 288 289 294 297 293 296 293 293 304 307 301 296 296 300 302 301
351 338 307 300 327 334 324 321 308 311 298 306 295 295 293 281 279 261 218 205 228 245 255 256 258 266 266 281 291 298 302 299 300 296 293 299 301 300 294 294 297 299 301
341 349 307 289 321 337 329 304 289 286 287 288 295 292 283 287 281 260 241 202 205 233 267 272 260 283 281 281 291 305 300 298 300 297 295 297 296 297 299 300 302 302 300
335 3 338 313 330 334 303 292 303 277 280 299 300 286 273 268 269 289 290 148 75 301 249 265 258 279 300 296 306 309 303 300 301 302 296 294 298 302 302 305 307 307 307
340 355 348 318 327 297 292 290 292 302 283 281 303 302 276 260 237 232 261 340 55 30 349 296 276 275 303 302 308 307 302 303 303 304 300 296 299 299 299 302 305 308 309
330 342 327 323 324 279 269 273 279 298 300 317 330 314 300 263 220 218 233 172 154 359 337 311 284 277 281 293 304 307 306 307 305 304 302 299 301 302 305 303 305 307 309
317 296 310 322 321 302 293 288 295 293 295 335 319 322 323 316 314 277 224 204 227 296 280 287 286 286 316 302 308 315 315 307 303 304 301 296 298 306 309 310 307 306 307
295 287 292 306 302 291 282 284 261 277 273 283 294 156 214 263 310 292 246 226 198 322 248 277 286 328 347 356 323 319 317 312 303 299 297 294 298 302 303 310 313 311 308
296 303 288 287 284 291 272 279 284 274 253 262 276 285 250 246 264 298 304 285 250 290 262 299 274 313 25 16 347 334 325 319 315 301 294 294 297 299 303 309 311 312 311
263 275 270 263 266 265 253 261 290 281 265 255 269 277 285 286 256 255 283 290 298 275 267 252 142 48 29 24 352 331 330 327 323 316 300 295 296 298 302 306 308 310 310
244 234 255 260 261 259 251 243 255 256 263 262 263 267 255 247 249 263 273 272 280 277 277 208 87 57 52 26 344 336 334 329 328 326 320 305 300 301 303 306 307 311 312
253 229 239 256 259 252 243 239 233 238 242 248 253 260 265 257 269 280 277 287 302 294 288 104 117 72 36 14 339 331 324 327 328 329 330 325 313 311 309 309 310 311 311
248 232 221 238 252 252 248 236 232 240 237 238 253 259 271 267 269 259 230 253 305 302 299 279 343 80 27 358 334 330 318 323 328 329 330 330 320 314 314 317 316 315 315
244 230 220 226 243 251 247 242 233 236 238 238 239 249 260 263 245 315 320 195 211 277 291 286 289 306 360 335 334 334 320 316 323 326 330 329 322 316 315 317 316 316 317
236 226 226 226 235 244 236 229 245 240 233 240 239 242 256 246 144 64 323 313 279 231 270 283 304 306 326 336 331 336 320 319 315 321 328 328 327 319 316 316 317 316 317
237 222 223 225 230 234 228 223 231 236 237 246 248 238 232 186 180 191 261 285 302 274 265 301 318 323 331 340 339 341 330 320 316 318 325 330 332 327 323 319 318 317 317
244 226 224 228 230 235 233 227 230 230 232 239 240 236 229 192 167 174 193 234 274 282 257 287 306 319 330 331 338 342 339 337 329 322 330 332 333 334 331 325 319 320 321
253 235 222 223 228 237 239 235 229 226 221 227 229 223 213 175 198 205 202 228 269 306 292 259 292 313 327 340 349 344 340 340 337 334 341 339 338 340 337 333 329 326 325
240 239 231 227 228 237 240 237 229 221 220 215 213 213 193 180 185 199 208 217 268 291 298 269 280 311 328 338 351 343 340 339 335 339 349 343 337 336 336 338 338 335 332
238 230 218 229 226 233 238 242 226 213 209 200 188 191 164 139 97 118 149 136 130 209 272 268 286 323 332 342 337 329 331 329 327 337 340 332 330 333 337 337 336 335 337
229 210 200 204 225 260 290 285 290 199 204 183 172 167 139 131 101 70 48 40 20 203 210 206 273 289 308 322 325 327 328 331 326 335 335 318 326 328 335 340 336 335 337
222 178 172 154 162 135 342 345 3 48 155 148 132 124 105 95 96 108 71 40 24 356 329 238 231 267 290 310 313 318 324 327 311 310 324 310 319 321 329 335 337 337 337
177 151 148 143 136 102 22 48 42 59 87 111 112 122 116 106 96 89 79 51 30 13 350 353 236 299 321 322 319 316 317 325 316 321 335 308 317 317 320 330 335 341 338
60 88 107 109 118 87 34 70 53 84 75 72 85 102 105 110 81 68 77 59 31 23 29 27 11 5 357 359 6 9 348 344 329 323 343 332 317 318 313 314 337 341 339
75 79 69 69 106 113 56 50 43 102 98 73 75 96 98 98 80 62 85 85 50 22 27 25 20 12 8 6 8 10 335 328 326 316 333 343 323 336 329 315 329 342 339
Height
1499 1500 1500 1500 1501 1501 1502 1502 1502 1503 1503 1503 1503 1503 1504 1504 1505 1505 1505 1505 1506 1506 1507 1508 1508 1508 1508 1509 1509 1509 1508 1508 1507 1507 1506 1505 1504 1503 1503 1502 1501 1500 1499
1497 1497 1498 1498 1499 1499 1499 1500 1500 1500 1501 1500 1501 1501 1501 1502 1502 1503 1503 1502 1503 1503 1503 1504 1505 1505 1505 1506 1506 1506 1506 1505 1505 1504 1503 1502 1501 1501 1500 1499 1498 1497 1496
1495 1495 1495 1496 1496 1496 1497 1497 1498 1498 1498 1498 1498 1498 1498 1499 1499 1500 1500 1499 1500 1500 1501 1501 1501 1502 1502 1502 1502 1502 1502 1502 1502 1501 1501 1500 1499 1498 1497 1496 1495 1495 1493
1493 1493 1493 1493 1493 1494 1494 1495 1495 1495 1495 1495 1495 1495 1495 1496 1496 1497 1496 1496 1497 1497 1497 1497 1498 1498 1498 1499 1499 1499 1499 1499 1499 1498 1498 1497 1496 1495 1494 1494 1493 1492 1491
1491 1490 1490 1490 1491 1491 1491 1492 1492 1492 1492 1492 1492 1492 1492 1493 1493 1493 1493 1493 1493 1493 1493 1493 1494 1494 1494 1495 1495 1496 1496 1496 1496 1495 1495 1494 1493 1492 1492 1491 1490 1488 1487
1487 1487 1487 1487 1487 1488 1489 1489 1489 1490 1489 1489 1489 1489 1489 1490 1490 1490 1490 1490 1490 1490 1490 1490 1490 1490 1490 1491 1492 1492 1492 1492 1492 1492 1491 1491 1490 1489 1489 1488 1486 1485 1484
1485 1484 1485 1485 1484 1485 1485 1486 1487 1487 1487 1487 1486 1485 1486 1487 1487 1487 1487 1487 1487 1487 1487 1486 1486 1486 1487 1487 1488 1488 1489 1489 1488 1488 1487 1487 1486 1486 1485 1484 1483 1482 1481
1482 1482 1482 1482 1482 1482 1483 1483 1484 1484 1484 1484 1484 1483 1483 1484 1484 1484 1484 1484 1483 1483 1483 1483 1482 1483 1483 1483 1484 1485 1485 1485 1484 1484 1484 1483 1483 1482 1482 1481 1480 1479 1478
1479 1479 1479 1479 1480 1480 1480 1480 1481 1481 1481 1482 1482 1483 1482 1481 1481 1480 1480 1481 1481 1481 1480 1480 1479 1480 1480 1480 1480 1481 1481 1481 1481 1480 1480 1480 1479 1478 1478 1477 1476 1475 1474
1476 1476 1476 1476 1477 1477 1477 1478 1478 1479 1479 1478 1479 1480 1481 1480 1480 1478 1478 1478 1477 1477 1477 1477 1476 1477 1477 1477 1477 1477 1477 1477 1477 1476 1476 1475 1475 1475 1474 1473 1472 1471 1470
1473 1473 1473 1474 1474 1474 1474 1475 1475 1476 1476 1476 1476 1476 1477 1477 1478 1477 1475 1474 1474 1474 1475 1474 1474 1474 1474 1474 1474 1474 1474 1473 1473 1472 1471 1471 1471 1471 1470 1469 1468 1467 1466
1470 1470 1470 1470 1471 1471 1471 1471 1472 1473 1473 1473 1473 1473 1474 1474 1474 1474 1473 1472 1470 1471 1471 1472 1471 1471 1471 1471 1471 1471 1470 1470 1469 1468 1467 1467 1467 1466 1466 1465 1464 1463 1462
1467 1467 1467 1467 1467 1467 1468 1468 1469 1469 1469 1470 1470 1470 1470 1471 1471 1471 1471 1469 1468 1468 1468 1469 1469 1469 1468 1469 1468 1467 1467 1466 1465 1464 1464 1463 1462 1462 1461 1461 1460 1459 1457
1464 1464 1464 1464 1464 1464 1464 1465 1465 1465 1466 1466 1467 1467 1467 1467 1468 1468 1469 1467 1466 1465 1465 1466 1466 1466 1466 1466 1465 1464 1463 1462 1462 1461 1460 1459 1458 1458 1457 1457 1456 1455 1453
1460 1461 1461 1460 1460 1460 1461 1461 1461 1461 1462 1463 1464 1464 1464 1464 1464 1465 1465 1466 1465 1463 1462 1463 1463 1463 1462 1462 1461 1461 1460 1459 1458 1457 1456 1456 1455 1454 1454 1453 1452 1451 1450
1457 1457 1457 1457 1457 1457 1457 1457 1458 1458 1458 1459 1460 1460 1460 1460 1461 1461 1462 1463 1463 1462 1461 1460 1460 1460 1459 1459 1459 1457 1456 1455 1455 1454 1453 1452 1451 1450 1450 1449 1448 1447 1446
1453 1453 1453 1453 1453 1453 1453 1454 1454 1455 1455 1456 1456 1456 1456 1457 1457 1458 1459 1460 1460 1460 1459 1457 1458 1457 1457 1455 1455 1454 1453 1452 1451 1451 1450 1449 1448 1447 1446 1445 1444 1443 1442
1449 1450 1450 1450 1450 1450 1450 1450 1450 1451 1451 1452 1452 1453 1453 1453 1454 1455 1456 1457 1457 1457 1457 1455 1454 1454 1453 1452 1452 1451 1450 1449 1448 1448 1446 1445 1444 1443 1442 1441 1440 1439 1438
1446 1446 1446 1446 1446 1446 1446 1446 1447 1447 1448 1448 1449 1449 1450 1451 1451 1452 1453 1454 1454 1454 1454 1453 1452 1452 1451 1450 1449 1448 1448 1446 1445 1444 1443 1442 1441 1440 1439 1438 1437 1436 1435
1443 1443 1442 1443 1443 1443 1443 1443 1444 1444 1444 1445 1445 1446 1447 1448 1448 1449 1450 1450 1451 1451 1451 1451 1450 1449 1448 1447 1446 1445 1444 1443 1442 1441 1440 1439 1438 1437 1436 1434 1433 1432 1431
1439 1439 1439 1439 1440 1440 1440 1440 1440 1440 1441 1441 1442 1443 1444 1445 1446 1447 1447 1448 1448 1448 1449 1448 1448 1447 1446 1444 1444 1443 1442 1440 1439 1438 1436 1436 1435 1433 1432 1431 1430 1429 1428
1436 1436 1436 1436 1437 1437 1437 1437 1437 1437 1437 1438 1439 1440 1441 1442 1443 1444 1445 1445 1446 1446 1446 1446 1446 1445 1443 1443 1442 1442 1440 1438 1436 1436 1434 1433 1432 1430 1429 1428 1427 1426 1425
1434 1433 1433 1434 1434 1434 1434 1434 1435 1435 1435 1436 1436 1437 1438 1439 1440 1441 1442 1443 1444 1445 1445 1445 1444 1443 1442 1441 1441 1440 1439 1437 1436 1434 1432 1429 1429 1427 1426 1425 1424 1423 1422
1431 1431 1431 1431 1431 1431 1432 1432 1433 1433 1434 1434 1435 1436 1436 1437 1438 1439 1440 1440 1441 1442 1442 1442 1442 1441 1440 1440 1439 1439 1437 1436 1434 1433 1431 1428 1426 1424 1423 1422 1421 1420 1418
1429 1428 1429 1429 1429 1430 1430 1431 1431 1432 1432 1432 1433 1434 1435 1436 1436 1437 1438 1438 1438 1439 1439 1439 1439 1439 1438 1438 1438 1437 1436 1434 1431 1430 1429 1427 1424 1422 1420 1419 1418 1417 1415
1427 1426 1427 1427 1427 1428 1429 1430 1430 1430 1430 1431 1432 1432 1433 1434 1435 1435 1436 1436 1436 1436 1436 1436 1436 1436 1436 1436 1435 1435 1434 1433 1430 1429 1427 1426 1423 1421 1418 1416 1416 1414 1412